UPS573 RPLL-VOBL

Flight info

Callsign UPS573
Flight time N/A
Altitude 34000
Route SIRCA2R SIRCA L628 ARESI/K0865F340 L628 PCA G474 ANINA/N0466F340 G474 VEMKO/N0413F240 G474 OMURO/N0465F340 G474 ANREN/N0464F360 G474 BKK M502 LALIT P762 PPB P761 MMV W117 XIVIL XIVIL7F
Aircraft B763/H-SDE3FGHIM3RWXY/LB1

Departure

Time 2026-05-05 13:41
Airport Ninoy Aquino International Airport (RPLL)

Arrival

Time N/A
Airport Kempegowda International Airport Bengaluru (VOBL)
Time Latitude Longitude Altitude Speed Heading
2026-05-05 13:14 14.50652 121.01012 45 ft 0 kts 328°
2026-05-05 13:31 14.50640 121.01020 43 ft 2 kts 328°
2026-05-05 13:32 14.50627 121.01028 42 ft 2 kts 328°
2026-05-05 13:32 14.50618 121.01034 41 ft 0 kts 328°
2026-05-05 13:32 14.50607 121.01042 41 ft 2 kts 294°
2026-05-05 13:32 14.50605 121.01057 42 ft 2 kts 257°
2026-05-05 13:33 14.50607 121.01063 43 ft 0 kts 237°
2026-05-05 13:33 14.50610 121.01068 44 ft 0 kts 240°
2026-05-05 13:34 14.50609 121.01067 44 ft 0 kts 240°
2026-05-05 13:37 14.50607 121.01063 44 ft 1 kts 240°
2026-05-05 13:37 14.50594 121.01039 44 ft 6 kts 241°
2026-05-05 13:38 14.50561 121.00977 42 ft 13 kts 242°
2026-05-05 13:38 14.50505 121.00874 41 ft 18 kts 240°
2026-05-05 13:38 14.50403 121.00801 42 ft 18 kts 207°
2026-05-05 13:38 14.50330 121.00707 41 ft 18 kts 240°
2026-05-05 13:39 14.50258 121.00579 40 ft 22 kts 239°
2026-05-05 13:39 14.50171 121.00423 38 ft 27 kts 239°
2026-05-05 13:39 14.50069 121.00241 36 ft 30 kts 242°
2026-05-05 13:39 14.49966 121.00053 33 ft 29 kts 240°
2026-05-05 13:40 14.49858 120.99978 32 ft 17 kts 155°
2026-05-05 13:40 14.49811 121.00057 33 ft 12 kts 70°
2026-05-05 13:40 14.49863 121.00152 35 ft 28 kts 60°
2026-05-05 13:40 14.50056 121.00500 38 ft 82 kts 60°
2026-05-05 13:41 14.50424 121.01160 43 ft 129 kts 60°
2026-05-05 13:41 14.50946 121.02094 72 ft 169 kts 62°
2026-05-05 13:41 14.51575 121.03207 385 ft 186 kts 60°
2026-05-05 13:41 14.52195 121.04331 1183 ft 177 kts 60°
2026-05-05 13:42 14.52809 121.05463 1549 ft 191 kts 61°
2026-05-05 13:42 14.53493 121.06687 1890 ft 206 kts 61°
2026-05-05 13:42 14.54238 121.08020 2216 ft 226 kts 60°
2026-05-05 13:42 14.55061 121.09501 2636 ft 244 kts 61°
2026-05-05 13:43 14.55913 121.11037 3221 ft 254 kts 61°
2026-05-05 13:43 14.56993 121.12476 4020 ft 256 kts 37°
2026-05-05 13:43 14.58619 121.13219 4743 ft 262 kts
2026-05-05 13:43 14.60447 121.13320 5539 ft 264 kts
2026-05-05 13:44 14.62272 121.13381 6278 ft 266 kts
2026-05-05 13:44 14.64149 121.13423 6889 ft 275 kts
2026-05-05 13:44 14.66134 121.13423 6895 ft 286 kts 355°
2026-05-05 13:44 14.67985 121.12780 6991 ft 280 kts 327°
2026-05-05 13:45 14.69323 121.11352 7073 ft 285 kts 299°
2026-05-05 13:45 14.69861 121.09365 7566 ft 291 kts 273°
2026-05-05 13:45 14.69922 121.07295 8361 ft 290 kts 272°
2026-05-05 13:45 14.69970 121.05223 8980 ft 296 kts 271°
2026-05-05 13:46 14.69987 121.03085 9654 ft 299 kts 270°
2026-05-05 13:46 14.69985 121.00937 10360 ft 301 kts 268°
2026-05-05 13:46 14.69601 120.98768 10663 ft 318 kts 249°
2026-05-05 13:46 14.68820 120.96587 10993 ft 334 kts 250°
2026-05-05 13:47 14.68005 120.94261 11350 ft 351 kts 249°
2026-05-05 13:47 14.67156 120.91876 11764 ft 363 kts 249°
2026-05-05 13:47 14.66279 120.89420 12550 ft 365 kts 249°
2026-05-05 13:47 14.65392 120.86943 13268 ft 368 kts 249°
2026-05-05 13:48 14.64503 120.84462 13918 ft 372 kts 249°
2026-05-05 13:48 14.63606 120.81966 14568 ft 376 kts 249°
2026-05-05 13:48 14.62692 120.79427 15251 ft 378 kts 249°
2026-05-05 13:48 14.61771 120.76871 15844 ft 382 kts 249°
2026-05-05 13:49 14.60854 120.74326 16462 ft 385 kts 249°
2026-05-05 13:49 14.59915 120.71725 17000 ft 389 kts 249°
2026-05-05 13:49 14.58970 120.69104 17621 ft 391 kts 249°
2026-05-05 13:49 14.58014 120.66454 18147 ft 395 kts 249°
2026-05-05 13:50 14.57054 120.63797 18778 ft 396 kts 249°
2026-05-05 13:50 14.56090 120.61126 19311 ft 399 kts 249°
2026-05-05 13:50 14.55121 120.58445 19844 ft 402 kts 249°
2026-05-05 13:50 14.54136 120.55720 20343 ft 405 kts 249°
2026-05-05 13:51 14.53158 120.53017 20889 ft 407 kts 249°
2026-05-05 13:51 14.52163 120.50264 21346 ft 411 kts 249°
2026-05-05 13:51 14.51893 120.49519 21480 ft 411 kts 249°
2026-05-05 13:51 14.51273 120.47807 21807 ft 412 kts 249°
2026-05-05 13:52 14.50262 120.45013 22273 ft 415 kts 249°
2026-05-05 13:52 14.49597 120.43179 22607 ft 416 kts 249°
2026-05-05 13:52 14.48578 120.40367 23090 ft 418 kts 249°
2026-05-05 13:52 14.47558 120.37552 23502 ft 421 kts 249°
2026-05-05 13:53 14.46573 120.34695 23944 ft 424 kts 254°
2026-05-05 13:53 14.46006 120.31728 24317 ft 428 kts 264°
2026-05-05 13:53 14.45768 120.28651 24782 ft 430 kts 265°
2026-05-05 13:53 14.45527 120.25523 24606 ft 445 kts 265°
2026-05-05 13:54 14.45297 120.22389 24660 ft 435 kts 265°
2026-05-05 13:54 14.45116 120.19874 24882 ft 422 kts 265°
2026-05-05 13:54 14.44900 120.16888 24879 ft 423 kts 265°
2026-05-05 13:54 14.44682 120.13843 24897 ft 429 kts 265°
2026-05-05 13:55 14.44462 120.10772 24890 ft 433 kts 265°
2026-05-05 13:55 14.44241 120.07669 24887 ft 432 kts 265°
2026-05-05 13:55 14.44019 120.04582 24883 ft 429 kts 265°
2026-05-05 13:55 14.43802 120.01551 24884 ft 427 kts 265°
2026-05-05 13:56 14.43581 119.98464 24887 ft 428 kts 265°
2026-05-05 13:56 14.43362 119.95424 24888 ft 430 kts 265°
2026-05-05 13:56 14.43140 119.92325 24886 ft 431 kts 265°
2026-05-05 13:56 14.42942 119.89258 24884 ft 430 kts 265°
2026-05-05 13:57 14.42721 119.86210 24884 ft 429 kts 265°
2026-05-05 13:57 14.42492 119.83164 24885 ft 429 kts 265°
2026-05-05 13:57 14.42263 119.80080 24886 ft 430 kts 265°
2026-05-05 13:57 14.42035 119.76998 24883 ft 430 kts 265°
2026-05-05 13:58 14.41811 119.73946 24885 ft 430 kts 265°
2026-05-05 13:58 14.41587 119.70882 24885 ft 430 kts 265°
2026-05-05 13:58 14.41360 119.67788 24885 ft 430 kts 265°
2026-05-05 13:58 14.41137 119.64741 24884 ft 430 kts 265°
2026-05-05 13:59 14.40685 119.58581 24885 ft 430 kts 265°
2026-05-05 13:59 14.40672 119.58404 24885 ft 430 kts 265°